Погода в Кеге

Вьетнам     10°42′36″N   107°59′43″E
темп.,
°C
ветер,
м/с
пор.,
м/с
влажн.,
%
обл.,
%
осадки,
мм/ч
давл.,
гПа
погр.,
м
9 мая, вс
вс901:00+28всв688497 0.2 1008533
04:00+27всв568451 0.0 1008431
07:00+28всв457885 0.0 1010457
10:00+30в566782 0.1 1010702
13:00+30вюв6669100 0.1 1008664
16:00+30вюв667052 0.0 1006802
19:00+28в457917 0.1 1008500
22:00+28в45825 0.1 1009419
10 мая, пн
пн1001:00+27в45845 1.1 1008400
04:00+27всв348621 0.1 1007393
07:00+27св448310 0.3 1009419
10:00+30в55701 0.0 1010747
13:00+30юв55679 0.0 1008786
16:00+30ююв667049 0.0 1006760
19:00+28вюв347549 0.0 1008463
22:00+28в33770 0.0 1009406
11 мая, вт
вт1101:00+27в22794 0.0 1008367
04:00+26ссв21834 0.0 1007246
07:00+27св117821 0.0 1009287
10:00+30вюв32658 0.0 1009741
13:00+31ююв536454 0.0 1007798
16:00+30ююв55686 0.0 1005649
19:00+28юв3376100 0.0 1007385
22:00+28вюв3376100 0.0 1009386
12 мая, ср
ср1201:00+27в2279100 0.2 1007347
04:00+27св228396 0.1 1007338
07:00+28св2280100 0.1 1008461
10:00+30юв3267100 0.0 1009787
13:00+31ююв646520 0.0 1006704
16:00+30ю66685 0.0 1004694
19:00+28всв2274100 0.4 1007296
22:00+28всв3477100 0.0 1008290
13 мая, чт
чт1301:00+27всв2380100 0.0 1006282
04:00+26св3383100 0.0 1006289
07:00+27св447969 0.0 1007372
10:00+30в556996 0.0 1008770
13:00+31вюв556699 0.0 1005741
16:00+30юв557064 0.0 1004797
19:00+28юв457945 0.1 1005424
22:00+27всв348499 1.4 1007168